Location: Ford County Road and Bridge Department
(37.7686°N, 99.9762°W)
Time: 03:29:55
(UTC+00:00)

Cosmos 1340 Rocket - Pass Details

Date: 18 January 2020
Orbit: 529 x 558 km, 81.2° (Epoch: 17 February)

Event Time Altitude Azimuth Distance (km) Brightness Sun altitude
Rises 00:52:54 0° 357° (N) 2,686 6.2 -13.0°
Reaches altitude 10° 00:55:06 10° 3° (N) 1,795 5.3 -13.5°
Maximum altitude 00:58:57 49° 79° (ENE) 696 2.9 -14.2°
Drops below altitude 10° 01:02:47 10° 155° (SSE) 1,797 5.3 -14.9°
Sets 01:05:00 0° 161° (SSE) 2,689 6.3 -15.3°
